This demonstration page uses our WeatherBlox Daily Observations layout. Learn more.

Left ArrowRight Arrow

39.08367, -84.50855

Hourly Observations for May 11, 2020

Temp ( °F °C ) Dew Point ( °F °C ) Humidity (%) Winds ( mph kmh ) Pressure ( in mb ) Visibility ( mi km ) Precip ( " mm )
12:53 am 00:53 Cloudy 45 7.2 33 0.6 63 63 W 20 31 30.09 1019 10 16.0934 0 0
1:11 am 01:11 Cloudy 44 6.7 34 1.1 68 68 W 18 30 30.11 1020 10 16.0934 0 0
1:53 am 01:53 Cloudy 43 6.1 31 -0.6 63 63 NW 12 19 30.12 1020 10 16.0934 0 0
2:53 am 02:53 Cloudy 42 5.6 30 -1.1 62 62 WNW 15 24 30.13 1020 10 16.0934 0 0
3:53 am 03:53 Mostly Cloudy 41 5 30 -1.1 65 65 WNW 15 24 30.14 1021 10 16.0934 0 0
4:53 am 04:53 Mostly Cloudy 40 4.4 30 -1.1 68 68 WNW 10 17 30.16 1021 10 16.0934 0 0
5:53 am 05:53 Mostly Cloudy 40 4.4 31 -0.6 70 70 NW 7 11 30.17 1022 10 16.0934 0 0
6:53 am 06:53 Cloudy 41 5 32 0 70 70 NNW 6 9 30.18 1022 10 16.0934 0 0
7:53 am 07:53 Cloudy 41 5 33 0.6 73 73 NNW 5 7 30.21 1023 10 16.0934 0 0
8:53 am 08:53 Cloudy 42 5.6 33 0.6 71 71 NW 10 17 30.21 1023 10 16.0934 0 0
9:53 am 09:53 Cloudy 44 6.7 33 0.6 65 65 NW 12 19 30.22 1024 10 16.0934 0 0
10:53 am 10:53 Cloudy 45 7.2 33 0.6 63 63 W 12 19 30.22 1024 10 16.0934 0 0
11:53 am 11:53 Cloudy 45 7.2 33 0.6 63 63 WSW 13 20 30.23 1024 10 16.0934 0.001 0.001
12:53 pm 12:53 Cloudy 47 8.3 31 -0.6 54 54 W 15 24 30.23 1024 10 16.0934 0 0
1:53 pm 13:53 Cloudy 47 8.3 31 -0.6 54 54 WNW 13 20 30.23 1024 10 16.0934 0 0
2:53 pm 14:53 Cloudy 48 8.9 31 -0.6 52 52 WNW 10 17 30.22 1023 10 16.0934 0 0
3:53 pm 15:53 Cloudy 49 9.4 31 -0.6 50 50 W 12 19 30.22 1023 10 16.0934 0 0
4:53 pm 16:53 Cloudy 49 9.4 32 0 52 52 W 9 15 30.22 1023 10 16.0934 0 0
5:53 pm 17:53 Cloudy 49 9.4 31 -0.6 50 50 NW 6 9 30.22 1024 10 16.0934 0 0
6:53 pm 18:53 Cloudy 49 9.4 32 0 52 52 W 6 9 30.22 1024 10 16.0934 0 0
7:53 pm 19:53 Cloudy 49 9.4 32 0 52 52 W 6 9 30.22 1023 10 16.0934 0 0
8:53 pm 20:53 Cloudy 48 8.9 33 0.6 56 56 W 7 11 30.22 1023 10 16.0934 0 0
9:53 pm 21:53 Cloudy 47 8.3 34 1.1 61 61 WSW 6 9 30.22 1024 10 16.0934 0 0
10:53 pm 22:53 Cloudy 47 8.3 34 1.1 61 61 Calm 30.23 1024 10 16.0934 0 0
11:53 pm 23:53 Cloudy 43 6.1 38 3.3 82 82 Calm 30.24 1024 10 16.0934 0 0

Powered by AerisWeather